This demonstration page uses our WeatherBlox Daily Observations layout. Learn more.

Left ArrowRight Arrow

Hourly Observations for November 24, 2021

Temp ( °F °C ) Dew Point ( °F °C ) Humidity (%) Winds ( mph kmh ) Pressure ( in mb ) Visibility ( mi km ) Precip ( " mm )
12:15 am 00:15 Clear 30 -1 21 -6 69 69 WNW 5 7 30.32 1027 10 16 N/A
12:35 am 00:35 Clear 30 -1 21 -6 69 69 WNW 5 7 30.32 1027 10 16 N/A
12:55 am 00:55 Clear 30 -1 21 -6 69 69 WNW 5 7 30.32 1027 10 16 N/A
1:15 am 01:15 Clear 30 -1 21 -6 69 69 NW 7 11 30.32 1027 10 16 N/A
1:35 am 01:35 Clear 32 undefined 21 -6 64 64 N N/A 30.32 1027 10 16 N/A
1:55 am 01:55 Clear 30 -1 21 -6 69 69 N N/A 30.33 1027 10 16 N/A
2:15 am 02:15 Clear 30 -1 21 -6 69 69 N N/A 30.34 1028 10 16 N/A
2:35 am 02:35 Clear 30 -1 21 -6 69 69 W 3 6 30.34 1028 10 16 N/A
2:55 am 02:55 Clear 30 -1 21 -6 69 69 WNW 5 7 30.35 1028 10 16 N/A
3:15 am 03:15 Clear 28 -2 21 -6 74 74 WNW 6 9 30.36 1028 10 16 N/A
3:35 am 03:35 Clear 27 -3 23 -5 86 86 WNW 5 7 30.37 1028 10 16 N/A
3:55 am 03:55 Clear 28 -2 21 -6 74 74 NW 5 7 30.38 1029 10 16 N/A
4:15 am 04:15 Clear 30 -1 21 -6 69 69 W 3 6 30.37 1029 10 16 N/A
4:35 am 04:35 Clear 27 -3 23 -5 86 86 W 6 9 30.39 1029 10 16 N/A
4:55 am 04:55 Clear 28 -2 23 -5 80 80 W 5 7 30.40 1029 10 16 N/A
5:15 am 05:15 Clear 30 -1 21 -6 69 69 N N/A 30.40 1030 10 16 N/A
5:35 am 05:35 Clear 28 -2 21 -6 74 74 N N/A 30.41 1030 10 16 N/A
5:55 am 05:55 Clear 28 -2 21 -6 74 74 SSW 3 6 30.41 1030 10 16 N/A
6:15 am 06:15 Clear 27 -3 21 -6 80 80 N N/A 30.43 1030 10 16 N/A
6:35 am 06:35 Clear 28 -2 21 -6 74 74 N N/A 30.43 1030 10 16 N/A
6:55 am 06:55 Clear 28 -2 21 -6 74 74 N N/A 30.44 1031 10 16 N/A
7:15 am 07:15 Sunny 27 -3 23 -5 86 86 N N/A 30.45 1031 10 16 N/A
7:35 am 07:35 Sunny 27 -3 23 -5 86 86 N N/A 30.46 1031 10 16 N/A
7:55 am 07:55 Sunny 28 -2 23 -5 80 80 WSW 3 6 30.46 1031 10 16 N/A
8:15 am 08:15 Sunny 30 -1 25 -4 80 80 W 3 6 30.46 1032 10 16 N/A
8:35 am 08:35 Sunny 32 undefined 27 -3 80 80 N N/A 30.46 1032 10 16 N/A
8:55 am 08:55 Sunny 34 1 27 -3 75 75 N N/A 30.47 1032 10 16 N/A
9:15 am 09:15 Sunny 36 2 25 -4 65 65 N N/A 30.48 1032 10 16 N/A
9:35 am 09:35 Sunny 37 3 27 -3 65 65 N N/A 30.48 1032 10 16 N/A
9:55 am 09:55 Sunny 39 4 25 -4 56 56 N N/A 30.48 1032 10 16 N/A
10:15 am 10:15 Sunny 41 5 25 -4 53 53 N N/A 30.46 1032 10 16 N/A
10:35 am 10:35 Sunny 41 5 27 -3 57 57 W 3 6 30.46 1032 10 16 N/A
10:55 am 10:55 Sunny 43 6 25 -4 49 49 N N/A 30.46 1032 10 16 N/A
11:15 am 11:15 Sunny 43 6 23 -5 46 46 W 3 6 30.44 1031 10 16 N/A
11:35 am 11:35 Sunny 43 6 27 -3 53 53 WNW 6 9 30.44 1031 10 16 N/A
11:55 am 11:55 Sunny 45 7 27 -3 49 49 NW 3 6 30.43 1031 10 16 N/A
12:15 pm 12:15 Sunny 45 7 27 -3 49 49 WNW 3 6 30.42 1030 10 16 N/A
12:35 pm 12:35 Sunny 45 7 27 -3 49 49 WSW 7 11 30.41 1030 10 16 N/A
12:55 pm 12:55 Sunny 46 8 27 -3 46 46 SSW 3 6 30.40 1029 10 16 N/A
1:15 pm 13:15 Sunny 46 8 27 -3 46 46 WSW 7 11 30.40 1029 10 16 N/A
1:35 pm 13:35 Sunny 46 8 27 -3 46 46 W 3 6 30.39 1029 10 16 N/A
1:55 pm 13:55 Sunny 46 8 25 -4 43 43 N N/A 30.38 1029 10 16 N/A
2:15 pm 14:15 Sunny 48 9 27 -3 43 43 SW 5 7 30.37 1028 10 16 N/A
2:35 pm 14:35 Sunny 50 10 27 -3 40 40 SW 6 9 30.37 1028 10 16 N/A
2:55 pm 14:55 Sunny 48 9 23 -5 37 37 SSW 5 7 30.37 1028 10 16 N/A
3:15 pm 15:15 Sunny 48 9 25 -4 40 40 WSW 5 7 30.36 1028 10 16 N/A
3:35 pm 15:35 Sunny 48 9 25 -4 40 40 SSW 6 9 30.37 1028 10 16 N/A
3:55 pm 15:55 Sunny 48 9 25 -4 40 40 N N/A 30.37 1028 10 16 N/A
4:15 pm 16:15 Sunny 46 8 27 -3 46 46 S 6 9 30.37 1028 10 16 N/A
4:35 pm 16:35 Sunny 46 8 25 -4 43 43 S 5 7 30.37 1028 10 16 N/A
4:55 pm 16:55 Clear 45 7 25 -4 46 46 S 5 7 30.37 1028 10 16 N/A
5:15 pm 17:15 Clear 45 7 23 -5 42 42 S 7 11 30.37 1028 10 16 N/A
5:35 pm 17:35 Clear 43 6 25 -4 49 49 S 6 9 30.37 1029 10 16 N/A
5:55 pm 17:55 Clear 45 7 23 -5 42 42 S 8 13 30.36 1028 10 16 N/A
6:15 pm 18:15 Clear 43 6 25 -4 49 49 S 5 7 30.37 1029 10 16 N/A
6:35 pm 18:35 Clear 41 5 27 -3 57 57 SSW 5 7 30.37 1029 10 16 N/A
6:55 pm 18:55 Clear 37 3 28 -2 70 70 N N/A 30.38 1029 10 16 N/A
7:15 pm 19:15 Clear 39 4 27 -3 61 61 N N/A 30.39 1029 10 16 N/A
7:35 pm 19:35 Clear 39 4 27 -3 61 61 S 3 6 30.38 1029 10 16 N/A
7:55 pm 19:55 Clear 37 3 27 -3 65 65 S 5 7 30.38 1029 10 16 N/A
8:15 pm 20:15 Clear 37 3 27 -3 65 65 S 5 7 30.38 1029 10 16 N/A
8:35 pm 20:35 Clear 34 1 28 -2 81 81 SSW 3 6 30.37 1028 10 16 N/A
8:55 pm 20:55 Clear 36 2 28 -2 75 75 S 5 7 30.36 1028 10 16 N/A
9:15 pm 21:15 Clear 37 3 27 -3 65 65 S 5 7 30.35 1028 10 16 N/A
9:35 pm 21:35 Clear 36 2 28 -2 75 75 S 6 9 30.34 1027 10 16 N/A
9:55 pm 21:55 Clear 36 2 28 -2 75 75 S 6 9 30.34 1027 10 16 N/A
10:15 pm 22:15 Clear 36 2 28 -2 75 75 SSW 5 7 30.33 1027 10 16 N/A
10:35 pm 22:35 Clear 34 1 28 -2 81 81 N N/A 30.34 1027 10 16 N/A
10:55 pm 22:55 Clear 34 1 28 -2 81 81 N N/A 30.32 1027 10 16 N/A
11:15 pm 23:15 Clear 34 1 28 -2 81 81 N N/A 30.32 1027 10 16 N/A
11:35 pm 23:35 Clear 32 undefined 28 -2 87 87 N N/A 30.32 1027 10 16 N/A
11:55 pm 23:55 Clear 34 1 28 -2 81 81 N N/A 30.31 1026 10 16 N/A

Powered by AerisWeather